Location: Unspecified
(54.1780°N, 0.0000°E)
Time: 10:13:59
(UTC+00:00)

Tiros 1 - Pass Details

Date: 19 June 2019
Orbit: 631 x 664 km, 48.4° (Epoch: 24 August)

Event Time Altitude Azimuth Distance (km) Brightness Sun altitude
Rises 03:10:41 0° 255° (WSW) 2,930 10.0 -2.4°
Reaches altitude 10° 03:13:06 10° 248° (WSW) 2,018 9.1 -2.1°
Maximum altitude 03:17:27 41° 179° (S) 917 7.7 -1.7°
Drops below altitude 10° 03:21:47 10° 109° (ESE) 2,010 10.1 -1.3°
Sets 03:24:12 0° 103° (ESE) 2,917 11.0 -1.0°
